Location: North Weald
(51.7000°N, 0.1667°E)
Time: 14:22:36
(UTC+00:00)

Daily predictions for brighter satellites

Satellite Brightness Start Highest point End
(mag) Time Altitude Azimuth Time Altitude Azimuth Time Altitude Azimuth
BREEZE-M DEB (TANK) 4.3 19:57:54 10° W 20:02:38 70° S 20:21:25 10° ESE
MetOp-B 4.3 20:16:29 10° SSE 20:21:46 62° ENE 20:27:04 10° N
ERS-2 3.7 20:19:11 10° N 20:22:38 40° WNW 20:26:02 10° SW
Cosmos 1602 3.7 20:20:37 10° N 20:24:31 76° E 20:28:22 10° SSE
BREEZE-M DEB (TANK) 1.3 20:23:00 10° W 20:25:30 51° S 20:27:30 10° ESE
Cosmos 1606 4.1 20:22:02 10° SSW 20:25:39 43° WNW 20:29:19 10° N
Cosmos 2278 Rocket 3.3 20:21:15 10° SSE 20:25:43 25° ESE 20:30:14 10° NE
USA 305 2.9 20:22:19 10° WNW 20:26:37 89° NE 20:30:54 10° ESE
Spot 2 Rocket 4.1 20:22:42 10° SE 20:27:27 43° ENE 20:32:13 10° N
Cosmos 1782 3.1 20:24:40 10° SSE 20:28:31 47° E 20:32:22 10° NNE
Landsat 7 3.9 20:24:16 10° SSE 20:29:01 75° ENE 20:33:48 10° NNW
Cosmos 1844 Rocket 3.0 20:24:07 10° SW 20:29:40 74° WNW 20:35:19 10° NNE
IGS 5A 3.5 20:25:47 10° SSE 20:29:56 84° ENE 20:34:06 10° NNW
Cosmos 1242 Rocket 2.4 20:27:28 10° S 20:31:01 78° ESE 20:34:34 10° NNE
Gbstr 26 Del rocket 4.4 20:23:09 10° W 20:31:10 90° NNE 20:38:04 10° E
ERS-1 Rocket 3.9 20:30:37 10° SE 20:35:08 35° ENE 20:39:41 10° N
CZ-4C R/B 3.0 20:28:30 10° NW 20:35:31 89° SW 20:43:47 10° SE
Cosmos 1633 Rocket 3.1 20:33:52 10° N 20:38:18 88° E 20:42:43 10° S
BREEZE M DEB (TANK) 4.3 20:34:47 10° WSW 20:38:59 73° SSE 20:54:10 10° E
Akebono 3.8 20:39:40 10° NNW 20:42:10 86° ENE 20:43:57 13° SSE
ATLAS 5 CENTAUR R/B 3.2 20:39:38 10° NW 20:44:52 42° SW 20:50:56 10° SSE
deb Kosmos-1763 4.5 20:41:30 10° NNW 20:44:57 47° ENE 20:47:57 13° SE
USA 306 2.9 20:41:39 10° WNW 20:45:56 79° SSW 20:49:58 11° ESE
Cosmos 1470 Rocket 3.6 20:46:05 10° N 20:50:36 71° ENE 20:55:00 10° SSE
Cosmos 1328 Rocket 3.6 20:46:35 10° S 20:50:59 67° E 20:55:22 10° NNE
Cosmos 1812 3.3 20:47:24 10° SSE 20:51:00 38° E 20:54:37 10° NNE
Cosmos 1503 Rocket 4.1 20:46:04 10° SSW 20:51:15 80° WNW 20:56:31 10° NNE
Cosmos 1777 Rocket 4.2 20:47:34 10° S 20:52:32 49° ESE 20:57:33 10° NNE
ARIANE 5 R/B 2.7 20:52:22 12° SSE 20:56:20 64° ENE 21:00:39 10° N
Cosmos 1666 3.1 20:53:59 10° N 20:57:37 47° ENE 21:00:28 15° SSE
CRYOSAT 2 4.4 20:54:46 10° S 20:59:40 87° W 21:04:36 10° N
Cosmos 1844 4.5 20:54:18 10° SW 20:59:56 57° NW 21:05:32 10° NNE
CARTOSAT-1 3.7 20:56:42 13° SSE 21:00:31 65° ENE 21:04:50 10° N
Cosmos 1833 Rocket 2.8 20:56:22 10° NNW 21:02:04 83° WSW 21:07:04 13° SSE
Meteor 1-5 Rocket 4.1 20:58:05 10° N 21:03:32 77° ENE 21:08:22 13° SSE
Cosmos 1933 Rocket 3.6 21:00:30 10° N 21:04:51 66° ENE 21:08:26 15° SSE
BREEZE-M R/B 2.0 21:03:12 10° WSW 21:05:34 43° SSE 21:07:49 12° E
Cosmos 1536 4.1 21:04:29 10° N 21:08:03 28° ENE 21:10:33 16° ESE
Cosmos 1437 2.4 21:05:32 10° SSW 21:08:21 83° W 21:11:13 10° NNE
Cosmos 2184 Rocket 4.1 21:06:07 10° N 21:12:21 66° ENE 21:17:33 15° SSE
USA 307 3.0 21:08:18 10° WNW 21:12:32 62° SSW 21:15:38 18° SE
CZ-2C R/B 3.7 21:09:41 10° NNE 21:14:12 85° WNW 21:18:44 10° SSW
Cosmos 2074 Rocket 4.1 21:10:33 10° N 21:16:53 73° ENE 21:22:14 15° SSE
NOSS 3-4 (A) 3.9 21:10:56 10° NW 21:17:47 90° WNW 21:24:06 16° SE
NOSS 3-4 (C) 3.9 21:11:02 10° NW 21:17:54 90° ENE 21:24:13 16° SE
JB-3 4.4 21:15:01 10° NNE 21:18:53 57° E 21:21:59 15° S
USA 245 3.3 21:20:53 16° SSW 21:22:18 34° W 21:24:26 10° NNW
SJ 16-02 1.6 21:19:29 12° S 21:23:28 49° ESE 21:27:46 10° NNE
Nadezhda 1 Rocket 4.5 21:19:51 16° SSE 21:24:38 44° E 21:30:29 10° NNE
USA 308 3.2 21:21:55 10° WNW 21:26:07 53° SSW 21:28:43 21° SE
Cosmos 1500 4.3 21:23:58 10° NNW 21:27:31 41° W 21:30:59 10° SSW
SPOT 1/Viking Rocket 4.2 21:23:43 10° S 21:28:46 51° W 21:33:51 10° NNW
NOSS 3-3 (A) 4.0 21:23:06 10° SW 21:29:00 90° ESE 21:35:51 10° NE
NOSS 3-3 (C) 4.0 21:23:14 10° SW 21:29:07 89° SE 21:35:57 10° NE
ATLAS 2AS CENTAUR R/B 3.0 21:23:49 10° NW 21:31:23 74° NE 21:37:04 16° SE
Cosmos 1544 3.9 21:32:05 10° N 21:35:27 35° ENE 21:37:03 23° ESE
CREW DRAGON DEMO-1 DEB 3.7 21:33:20 10° W 21:35:39 26° SSW 21:35:56 26° SSW
Iridium 4 Rocket 3.8 21:30:58 13° S 21:36:13 83° E 21:42:11 10° N
Terra 1.8 21:33:01 20° SSE 21:36:18 76° ENE 21:41:05 10° NNW
USA 215 3.9 21:31:28 10° E 21:37:51 58° N 21:44:15 10° WNW
ERBS 3.4 21:37:16 10° WNW 21:40:26 42° NNE 21:43:15 12° E
Cosmos 2082 Rocket 2.2 21:36:23 10° NNW 21:42:01 79° WSW 21:45:50 21° SSE
SPOT 5 3.2 21:38:33 18° S 21:42:27 74° WSW 21:47:47 10° NNW
Cosmos 158 Rocket 3.9 21:38:48 10° NNW 21:43:41 74° WSW 21:46:51 22° SSE
Cosmos 2112 Rocket 4.3 21:39:27 10° NNW 21:44:46 61° ENE 21:48:11 22° SE
Resurs 01 Rocket 4.0 21:42:19 10° SW 21:45:27 19° W 21:48:37 10° NW
Cosmos 2084 3.8 21:41:56 10° SW 21:46:05 67° NW 21:50:22 10° NE
Cosmos 44 3.7 21:42:54 10° NW 21:48:23 69° NE 21:51:59 21° SE
Cosmos 2228 Rocket 3.1 21:45:34 22° S 21:48:23 65° E 21:52:51 10° NNE
COSMOS 2406 4.1 21:43:07 10° NW 21:48:24 41° WSW 21:52:38 15° S
Cosmos 2084 Rocket 3.8 21:52:19 10° NW 21:56:30 58° NE 21:59:14 21° ESE
Cosmos 1271 Rocket 2.9 21:54:20 17° SSW 21:57:21 77° WNW 22:01:23 10° N
Cosmos 2341 Rocket 4.3 21:53:54 10° N 22:00:13 57° ENE 22:04:08 24° SE
BREEZE-M DEB (TANK) 3.2 21:52:15 10° W 22:00:41 84° N 22:03:24 10° E
Meteor 1-27 Rocket 3.8 21:58:45 19° S 22:03:00 74° E 22:08:56 10° NNE
USA 305 4.0 22:02:30 10° W 22:06:16 30° SW 22:07:27 26° S
Cosmos 2278 Rocket 2.5 22:03:41 10° SW 22:09:20 69° WNW 22:15:00 10° NNE
SL-24 R/B - RUBIN 2 3.9 22:04:45 10° NW 22:10:26 87° SW 22:13:07 28° SE
Cosmos 1937 Rocket 4.2 22:09:32 27° SE 22:11:18 35° ESE 22:15:58 10° NE
Cosmos 1680 Rocket 3.6 22:06:38 10° NNW 22:11:59 78° WSW 22:14:52 28° SSE
Cosmos 1869 Rocket 3.9 22:09:30 10° NNW 22:13:47 59° W 22:16:05 26° SSW
ERS-1 Rocket 3.9 22:10:19 16° SSW 22:13:53 40° W 22:18:38 10° NNW
Cosmos 1943 Rocket 2.9 22:13:55 27° SE 22:15:49 34° ESE 22:20:48 10° NE
Cosmos 2369 Rocket 3.6 22:17:10 19° ESE 22:18:15 20° E 22:22:17 10° NE
Gbstr 26 Del rocket 4.1 22:11:04 10° WNW 22:18:40 78° SSW 22:23:48 17° ESE
Cosmos 1238 Rocket 3.9 22:16:01 10° N 22:22:19 65° ENE 22:25:13 29° SSE
CZ-4C R/B 4.2 22:17:32 10° WNW 22:23:42 30° WSW 22:28:58 16° SSW
USA 306 4.3 22:22:00 10° W 22:25:26 24° SW 22:26:02 23° SSW
Cosmos 1340 Rocket 3.0 22:25:27 10° NNW 22:29:32 64° W 22:31:03 35° SSW
Okean 1 3.7 22:29:36 38° SE 22:30:32 47° E 22:34:23 10° NNE
Cosmos 1818 3.5 22:25:52 10° NW 22:31:23 89° WSW 22:34:12 30° SE
Cosmos 1707 Rocket 3.5 22:32:59 35° S 22:34:47 83° E 22:39:14 10° NNE
DNEPR-1 R/B 4.4 22:34:46 31° S 22:36:50 43° ESE 22:41:32 10° NE
SL-8 Rocket 4.0 22:31:48 10° N 22:38:11 79° E 22:41:32 30° SSE
ALOS 2 3.3 22:41:06 29° ESE 22:42:48 43° ENE 22:46:59 10° N
Cosmos 1536 4.2 22:40:52 10° NNW 22:44:28 31° W 22:46:16 21° SW
Cosmos 1743 3.3 22:44:38 10° NNW 22:48:22 47° W 22:49:32 35° SW
Meteor 2-4 Rocket 4.5 22:47:04 29° SE 22:49:12 39° E 22:54:23 10° NNE
Cosmos 1898 Rocket 3.5 22:47:29 25° SSW 22:50:38 89° NW 22:56:01 10° NNE
SL-27 R/B 4.3 22:50:04 10° N 22:52:44 22° NE 22:53:51 18° E
Cosmos 1975 2.7 22:55:34 10° N 22:59:34 79° E 23:00:28 52° SSE
RESURS DK-1 3.1 22:57:44 10° NNW 23:01:47 47° NE 23:03:31 29° ESE
SJ 16-02 3.4 22:58:35 10° WSW 23:02:17 25° NW 23:06:01 10° N
Cosmos 1733 Rocket 3.4 22:59:18 10° NNW 23:03:32 53° W 23:04:54 37° SSW
Cosmos 990 Rocket 4.4 23:00:01 18° SW 23:03:55 61° WNW 23:09:10 10° NNE
Cosmos 864 Rocket 4.4 22:59:22 10° N 23:05:34 85° W 23:08:29 34° S
Cosmos 1461 3.4 23:07:22 43° SSE 23:08:05 47° ESE 23:12:31 10° NE
SeaSat 1 4.2 23:04:56 10° ENE 23:08:10 17° ESE 23:08:32 17° ESE
Cosmos 2297 3.7 23:04:38 23° SSW 23:08:16 85° WNW 23:14:00 10° NNE
Cosmos 1959 Rocket 4.5 23:02:03 10° NNW 23:08:20 80° W 23:11:16 33° S
Cosmos 372 Rocket 4.0 23:07:02 40° SSE 23:08:37 58° ESE 23:13:38 10° NNE
Cosmos 2242 Rocket 4.2 23:09:01 37° SE 23:09:59 42° E 23:14:13 10° NNE
Cosmos 1900 4.3 23:09:19 26° SW 23:12:13 89° SE 23:17:18 10° NE
Terra 4.0 23:11:54 11° SW 23:14:36 17° W 23:17:42 10° NW
ERBS 2.9 23:13:24 10° WNW 23:16:00 43° WSW 23:16:00 43° WSW
Cosmos 494 Rocket 4.4 23:12:29 10° NNW 23:17:37 55° ENE 23:20:07 28° SE
Cosmos 1908 Rocket 3.5 23:13:57 10° N 23:18:29 87° E 23:19:43 48° SSE
Meteor 1-18 Rocket 4.2 23:16:27 34° SSW 23:19:01 88° W 23:24:39 10° NNE
USA 215 3.2 23:14:07 10° ESE 23:20:40 86° NNE 23:27:15 10° WNW
ATLAS 2AS CENTAUR R/B 3.6 23:15:22 10° NW 23:21:50 35° WSW 23:24:29 26° SSW
MTI 4.5 23:19:27 10° NNE 23:21:54 40° ENE 23:21:54 40° ENE
Cosmos 2082 Rocket 4.2 23:22:09 10° WNW 23:25:12 15° W 23:27:41 11° SW
Cosmos 1867 4.2 23:25:56 35° SE 23:26:55 38° ESE 23:31:56 10° NE
Cosmos 44 Rocket 4.1 23:22:22 10° NW 23:27:31 52° NE 23:31:23 17° ESE
Cosmos 1125 Rocket 4.4 23:26:49 29° SE 23:27:59 32° ESE 23:32:35 10° NE
SAR-Lupe-2 3.5 23:29:09 10° NNE 23:32:44 67° ESE 23:32:57 65° SE
Cosmos 2181 Rocket 4.2 23:29:26 27° SSW 23:32:49 64° WNW 23:38:55 10° N
Cosmos 1378 3.9 23:34:53 36° ESE 23:35:07 36° E 23:38:34 10° NNE
Cosmos 2344 4.3 23:28:37 10° NW 23:37:28 85° NE 23:49:49 10° SE
ATLAS CENTAUR R/B 2.8 23:38:29 21° E 23:38:29 21° E 23:40:40 10° ENE
Cosmos 2366 rocket 4.5 23:31:48 10° NNW 23:37:44 51° W 23:40:37 29° SSW
Cosmos 1821 Rocket 4.0 23:32:00 10° N 23:38:27 83° E 23:41:25 35° SSE
Cosmos 1934 Rocket 4.5 23:32:58 10° N 23:38:59 51° ENE 23:42:10 27° SE
USA 281 4.4 23:38:20 10° ESE 23:44:15 38° NE 23:50:12 10° NNW
Cosmos 1703 Rocket 3.5 23:48:52 51° SSW 23:49:57 86° WNW 23:54:23 10° N
Cosmos 1782 Rocket 3.5 23:45:49 10° NNW 23:50:18 81° W 23:51:22 52° S
Okean 3 3.8 23:50:46 45° SE 23:51:35 53° E 23:55:43 10° NNE
NOSS 2-1 (C) 4.3 23:48:37 10° NW 23:53:06 68° NE 23:58:29 14° SE
Cosmos 1937 Rocket 4.5 23:49:39 18° WSW 23:53:11 42° NW 23:58:07 10° NNE
Lacrosse 5 3.8 23:54:51 14° ESE 23:54:51 14° ESE 23:57:02 10° E
